Weather History for Danbury, CT

Change the Weather History Date:

Wednesday, November 29, 2000

  Actual Average Record
Temperature  
Mean Temperature 36 °F -  
Max Temperature 46 °F 47 °F 63 °F (2011)
Min Temperature 26 °F 31 °F 14 °F (1955)
Degree Days  
Heating Degree Days 29    
Moisture  
Dew Point 29 °F    
Average Humidity 77    
Maximum Humidity 96    
Minimum Humidity 50    
Precipitation  
Precipitation 0.08 in - - ()
Sea Level Pressure  
Sea Level Pressure 30.04 in    
Wind  
Wind Speed 4 mph (WSW)    
Max Wind Speed 9 mph    
Max Gust Speed 18 mph    
Visibility 9 miles    
Events Rain    
Averages and records for this station are not official NWS values.
T = Trace of Precipitation, MM = Missing Value Source: NWS Daily Summary

Daily Weather History Graph

Daily Weather History Graph

Search for Another Location

Airport:

Trip Planner

Search our weather history database for the weather conditions in past years. The results will help you decide how hot, cold, wet, or windy it might be!

Date:

Astronomy

Nov. 29, 2000 Rise Set
Actual Time 6:58 AM EST 4:25 PM EST
Civil Twilight 6:28 AM EST 4:56 PM EST
Nautical Twilight 5:53 AM EST 5:30 PM EST
Astronomical Twilight 5:20 AM EST 6:03 PM EST
Moon 10:04 AM EST (11/29) 7:33 PM EST (11/29)
Length of Visible Light 10h 28m
Length of Day
9h 26m
Waxing Crescent, 13% of the Moon is Illuminated
Nov 29
Waxing Crescent
Dec 3
First Quarter
Dec 11
Full
Dec 17
Last Quarter
Dec 25
New

Hourly Weather History & Observations

Time (EST) Temp. Windchill Dew Point Humidity Pressure Visibility Wind Dir Wind Speed Gust Speed Precip Events Conditions
12:53 AM 37.0 °F 31.6 °F 30.0 °F 76% 30.02 in 10.0 mi WSW 6.9 mph - N/A   Clear
1:53 AM 35.1 °F 29.3 °F 28.0 °F 76% 30.03 in 10.0 mi WSW 6.9 mph - N/A   Clear
2:53 AM 33.1 °F 28.7 °F 28.0 °F 82% 30.04 in 10.0 mi WSW 4.6 mph - N/A   Clear
3:34 AM 28.4 °F - 26.6 °F 93% 30.04 in 8.0 mi Calm Calm - N/A   Mostly Cloudy
3:53 AM 30.0 °F - 27.0 °F 88% 30.05 in 7.0 mi Calm Calm - N/A   Overcast
4:14 AM 28.4 °F 23.3 °F 26.6 °F 93% 30.05 in 7.0 mi SW 4.6 mph - N/A   Scattered Clouds
4:53 AM 30.0 °F 26.5 °F 27.0 °F 88% 30.08 in 8.0 mi SW 3.5 mph - N/A   Mostly Cloudy
5:53 AM 27.0 °F - 25.0 °F 92% 30.09 in 6.0 mi Calm Calm - N/A   Clear
6:53 AM 26.1 °F 21.9 °F 24.1 °F 92% 30.11 in 5.0 mi WSW 3.5 mph - N/A   Clear
7:53 AM 28.0 °F - 25.0 °F 88% 30.12 in 6.0 mi Calm Calm - N/A   Clear
8:53 AM 36.0 °F - 30.9 °F 82% 30.12 in 10.0 mi Calm Calm - N/A   Clear
9:53 AM 42.1 °F 37.7 °F 30.0 °F 62% 30.10 in 10.0 mi Variable 6.9 mph - N/A   Clear
10:53 AM 44.1 °F 39.0 °F 28.9 °F 55% 30.09 in 10.0 mi WSW 9.2 mph - N/A   Clear
11:53 AM 46.0 °F 41.4 °F 28.0 °F 50% 30.07 in 10.0 mi West 9.2 mph 18.4 mph N/A   Overcast
12:53 PM 44.1 °F 41.5 °F 28.0 °F 53% 30.05 in 10.0 mi West 4.6 mph - N/A   Mostly Cloudy
1:53 PM 44.1 °F 39.5 °F 27.0 °F 51% 30.04 in 10.0 mi West 8.1 mph - N/A   Overcast
2:53 PM 44.1 °F 40.1 °F 28.0 °F 53% 30.04 in 10.0 mi West 6.9 mph - N/A   Overcast
3:53 PM 43.0 °F 39.5 °F 27.0 °F 53% 30.04 in 10.0 mi West 5.8 mph - N/A   Overcast
4:53 PM 37.9 °F 35.5 °F 27.0 °F 65% 30.03 in 10.0 mi SSW 3.5 mph - N/A   Partly Cloudy
5:53 PM 36.0 °F - 28.9 °F 76% 30.02 in 10.0 mi Calm Calm - N/A   Scattered Clouds
6:53 PM 36.0 °F - 28.9 °F 76% 30.01 in 10.0 mi Calm Calm - N/A   Partly Cloudy
7:53 PM 36.0 °F 30.3 °F 30.0 °F 79% 30.01 in 10.0 mi WSW 6.9 mph - N/A   Overcast
8:53 PM 36.0 °F 33.3 °F 30.9 °F 82% 30.02 in 10.0 mi SW 3.5 mph - N/A   Overcast
9:06 PM 37.4 °F 30.8 °F 33.8 °F 87% 30.01 in 6.0 mi SW 9.2 mph - 0.01 in Rain Light Rain
9:53 PM 37.0 °F - 34.0 °F 89% 29.99 in 10.0 mi Calm Calm - 0.03 in   Overcast
10:53 PM 37.0 °F - 35.1 °F 93% 29.96 in 8.0 mi Calm Calm - 0.00 in Rain Light Rain
11:53 PM 35.1 °F 31.0 °F 34.0 °F 96% 29.92 in 5.0 mi ESE 4.6 mph - 0.05 in Rain Light Rain